VLG78KK LEBL-LMML

Flight info

Callsign VLG78KK
Flight time 1h 35m
Altitude 34000
Route DIPES N725 OSPOK/N0441F370 DCT NOLVI DCT ORKUM/N0439F360 DCT ELSAG DCT ALG/N0441F370 DCT SENTI DCT RATOK DCT UPLIT M732 GZO
Aircraft A319/M-SDE3FGHIRWY/LB1

Departure

Time 2026-05-06 17:02
Airport Josep Tarradellas Barcelona-El Prat Airport (LEBL)

Arrival

Time 2026-05-06 18:37
Airport Malta International Airport (LMML)
Time Latitude Longitude Altitude Speed Heading
2026-05-06 16:49 41.29029 2.08053 3 ft 0 kts 335°
2026-05-06 16:54 41.29013 2.08062 4 ft 2 kts 340°
2026-05-06 16:54 41.28997 2.08068 3 ft 2 kts 347°
2026-05-06 16:54 41.28981 2.08071 3 ft 2 kts 357°
2026-05-06 16:54 41.28964 2.08069 3 ft 2 kts 16°
2026-05-06 16:55 41.28950 2.08059 4 ft 2 kts 41°
2026-05-06 16:55 41.28940 2.08042 5 ft 2 kts 62°
2026-05-06 16:55 41.28938 2.08038 4 ft 0 kts 64°
2026-05-06 16:57 41.28950 2.08072 3 ft 9 kts 65°
2026-05-06 16:57 41.28904 2.08148 3 ft 16 kts 156°
2026-05-06 16:58 41.28776 2.08227 4 ft 24 kts 158°
2026-05-06 16:58 41.28723 2.08236 3 ft 5 kts 161°
2026-05-06 16:58 41.28723 2.08327 5 ft 19 kts 67°
2026-05-06 16:58 41.28783 2.08514 10 ft 24 kts 68°
2026-05-06 16:59 41.28845 2.08678 4 ft 21 kts 68°
2026-05-06 16:59 41.28909 2.08867 4 ft 24 kts 66°
2026-05-06 16:59 41.28979 2.09074 5 ft 25 kts 66°
2026-05-06 16:59 41.29053 2.09292 4 ft 27 kts 66°
2026-05-06 17:00 41.29133 2.09522 3 ft 28 kts 66°
2026-05-06 17:00 41.29215 2.09762 4 ft 29 kts 63°
2026-05-06 17:00 41.29277 2.10004 3 ft 24 kts 109°
2026-05-06 17:00 41.29236 2.10187 5 ft 20 kts 74°
2026-05-06 17:01 41.29222 2.10292 5 ft 6 kts 207°
2026-05-06 17:01 41.29196 2.10254 5 ft 0 kts 244°
2026-05-06 17:01 41.29190 2.10239 5 ft 4 kts 243°
2026-05-06 17:01 41.29055 2.09869 9 ft 90 kts 245°
2026-05-06 17:02 41.28661 2.08725 52 ft 161 kts 243°
2026-05-06 17:02 41.28085 2.07397 566 ft 181 kts 226°
2026-05-06 17:02 41.27027 2.06318 1085 ft 218 kts 206°
2026-05-06 17:02 41.25427 2.05690 1552 ft 258 kts 188°
2026-05-06 17:03 41.23607 2.05493 2603 ft 259 kts 185°
2026-05-06 17:03 41.21878 2.05434 4090 ft 236 kts 182°
2026-05-06 17:03 41.20279 2.05478 5042 ft 227 kts 180°
2026-05-06 17:03 41.18712 2.05589 5657 ft 227 kts 179°
2026-05-06 17:04 41.17131 2.05682 6588 ft 226 kts 185°
2026-05-06 17:04 41.15532 2.05592 7396 ft 239 kts 185°
2026-05-06 17:04 41.13837 2.05506 8245 ft 246 kts 185°
2026-05-06 17:04 41.12125 2.05428 9266 ft 248 kts 185°
2026-05-06 17:05 41.10391 2.05350 10228 ft 250 kts 185°
2026-05-06 17:05 41.08648 2.05272 11171 ft 252 kts 185°
2026-05-06 17:05 41.06848 2.05650 11733 ft 279 kts 161°
2026-05-06 17:05 41.05175 2.07194 12109 ft 312 kts 136°
2026-05-06 17:06 41.04002 2.09759 12421 ft 345 kts 112°
2026-05-06 17:06 41.03620 2.13008 12818 ft 371 kts 88°
2026-05-06 17:06 41.04074 2.16412 13600 ft 379 kts 77°
2026-05-06 17:06 41.04671 2.19839 14338 ft 385 kts 80°
2026-05-06 17:07 41.05091 2.23372 15031 ft 390 kts 85°
2026-05-06 17:07 41.05320 2.26971 15730 ft 395 kts 89°
2026-05-06 17:07 41.05432 2.30635 16402 ft 401 kts 91°
2026-05-06 17:07 41.05487 2.34351 17094 ft 407 kts 92°
2026-05-06 17:08 41.05524 2.38134 17763 ft 413 kts 92°
2026-05-06 17:08 41.05558 2.41964 18403 ft 419 kts 92°
2026-05-06 17:08 41.05596 2.45851 19021 ft 424 kts 92°
2026-05-06 17:08 41.05636 2.49783 19617 ft 429 kts 93°
2026-05-06 17:09 41.05627 2.53738 20192 ft 432 kts 97°
2026-05-06 17:09 41.05442 2.57748 20783 ft 437 kts 98°
2026-05-06 17:09 41.05230 2.61788 21372 ft 442 kts 98°
2026-05-06 17:09 41.05011 2.65866 21944 ft 447 kts 98°
2026-05-06 17:10 41.04708 2.69977 22507 ft 447 kts 107°
2026-05-06 17:10 41.03811 2.73781 23036 ft 441 kts 120°
2026-05-06 17:10 41.02800 2.76823 23487 ft 443 kts 121°
2026-05-06 17:10 41.01562 2.80435 23971 ft 447 kts 122°
2026-05-06 17:11 41.00276 2.84198 24463 ft 451 kts 122°
2026-05-06 17:11 40.98989 2.88000 24947 ft 455 kts 122°
2026-05-06 17:11 40.97700 2.91839 25415 ft 458 kts 122°
2026-05-06 17:11 40.96403 2.95715 25886 ft 462 kts 122°
2026-05-06 17:12 40.95100 2.99614 26349 ft 465 kts 122°
2026-05-06 17:12 40.93786 3.03543 26805 ft 468 kts 122°
2026-05-06 17:12 40.92462 3.07495 27262 ft 471 kts 122°
2026-05-06 17:12 40.91130 3.11466 27705 ft 474 kts 122°
2026-05-06 17:13 40.89789 3.15457 28128 ft 477 kts 122°
2026-05-06 17:13 40.88440 3.19466 28535 ft 480 kts 122°
2026-05-06 17:13 40.87077 3.23511 28947 ft 482 kts 122°
2026-05-06 17:13 40.85711 3.27562 29340 ft 485 kts 122°
2026-05-06 17:14 40.84331 3.31643 29731 ft 487 kts 122°
2026-05-06 17:14 40.82959 3.35692 30100 ft 490 kts 122°
2026-05-06 17:14 40.81563 3.39802 30454 ft 491 kts 122°
2026-05-06 17:14 40.80159 3.43929 30809 ft 493 kts 122°
2026-05-06 17:15 40.78753 3.48056 31195 ft 494 kts 122°
2026-05-06 17:15 40.77324 3.52246 31663 ft 493 kts 122°
2026-05-06 17:15 40.75937 3.56307 32146 ft 491 kts 122°
2026-05-06 17:15 40.74536 3.60403 32596 ft 490 kts 122°
2026-05-06 17:16 40.73134 3.64492 33040 ft 489 kts 123°
2026-05-06 17:16 40.71736 3.68565 33495 ft 487 kts 123°
2026-05-06 17:16 40.70338 3.72630 33838 ft 486 kts 123°
2026-05-06 17:17 40.67550 3.80721 33938 ft 484 kts 123°
2026-05-06 17:17 40.64763 3.88782 33938 ft 484 kts 123°
2026-05-06 17:18 40.62418 3.95545 33937 ft 484 kts 123°
2026-05-06 17:18 40.59635 4.03559 33936 ft 485 kts 123°
2026-05-06 17:19 40.56827 4.11620 33937 ft 485 kts 123°
2026-05-06 17:19 40.54013 4.19675 33941 ft 485 kts 123°
2026-05-06 17:20 40.51191 4.27732 33942 ft 485 kts 123°
2026-05-06 17:20 40.48366 4.35773 33949 ft 485 kts 123°
2026-05-06 17:21 40.45538 4.43802 33946 ft 484 kts 122°
2026-05-06 17:21 40.42707 4.51818 33946 ft 484 kts 122°
2026-05-06 17:22 40.39873 4.59817 33948 ft 483 kts 122°
2026-05-06 17:22 40.37036 4.67806 33948 ft 483 kts 122°
2026-05-06 17:23 40.34196 4.75778 33946 ft 482 kts 122°
2026-05-06 17:23 40.31356 4.83729 33940 ft 481 kts 122°
2026-05-06 17:24 40.28515 4.91662 33939 ft 481 kts 122°
2026-05-06 17:24 40.25668 4.99589 33939 ft 481 kts 122°
2026-05-06 17:25 40.22823 5.07491 33935 ft 480 kts 122°
2026-05-06 17:25 40.19967 5.15400 33930 ft 480 kts 122°
2026-05-06 17:26 40.17112 5.23285 33927 ft 480 kts 122°
2026-05-06 17:26 40.14244 5.31185 33941 ft 481 kts 122°
2026-05-06 17:27 40.11372 5.39076 33927 ft 481 kts 122°
2026-05-06 17:27 40.08493 5.46964 33937 ft 482 kts 122°
2026-05-06 17:28 40.05623 5.54805 33933 ft 482 kts 122°
2026-05-06 17:28 40.02725 5.62704 33937 ft 482 kts 122°
2026-05-06 17:29 39.99820 5.70599 33945 ft 483 kts 122°
2026-05-06 17:29 39.96911 5.78486 33951 ft 483 kts 122°
2026-05-06 17:30 39.93997 5.86367 33953 ft 483 kts 122°
2026-05-06 17:30 39.91076 5.94243 33959 ft 483 kts 122°
2026-05-06 17:31 39.88150 6.02109 33954 ft 482 kts 122°
2026-05-06 17:31 39.85222 6.09962 33952 ft 482 kts 122°
2026-05-06 17:32 39.82292 6.17797 33943 ft 482 kts 122°
2026-05-06 17:32 39.79377 6.25572 33943 ft 481 kts 122°
2026-05-06 17:33 39.76437 6.33395 33942 ft 481 kts 122°
2026-05-06 17:33 39.73494 6.41202 33941 ft 481 kts 122°
2026-05-06 17:34 39.70552 6.48988 33928 ft 481 kts 122°
2026-05-06 17:34 39.67597 6.56789 33947 ft 480 kts 122°
2026-05-06 17:35 39.64643 6.64564 33950 ft 480 kts 122°
2026-05-06 17:35 39.61687 6.72326 33945 ft 480 kts 121°
2026-05-06 17:36 39.57244 6.83953 33954 ft 480 kts 121°
2026-05-06 17:36 39.54273 6.91703 33954 ft 479 kts 121°
2026-05-06 17:37 39.51306 6.99426 33948 ft 479 kts 122°
2026-05-06 17:37 39.48328 7.07153 33943 ft 479 kts 121°
2026-05-06 17:38 39.45354 7.14852 33942 ft 478 kts 122°
2026-05-06 17:38 39.42372 7.22550 33943 ft 478 kts 121°
2026-05-06 17:39 39.39391 7.30227 33943 ft 478 kts 121°
2026-05-06 17:39 39.36408 7.37892 33937 ft 477 kts 121°
2026-05-06 17:40 39.33421 7.45546 33943 ft 477 kts 121°
2026-05-06 17:40 39.30436 7.53175 33944 ft 476 kts 121°
2026-05-06 17:41 39.27442 7.60805 34006 ft 476 kts 121°
2026-05-06 17:41 39.24446 7.68425 33961 ft 476 kts 121°
2026-05-06 17:42 39.21446 7.76036 33955 ft 475 kts 121°
2026-05-06 17:42 39.18455 7.83604 33953 ft 474 kts 121°
2026-05-06 17:43 39.15462 7.91159 33947 ft 473 kts 121°
2026-05-06 17:43 39.12468 7.98698 33937 ft 472 kts 121°
2026-05-06 17:44 39.09476 8.06212 33937 ft 471 kts 121°
2026-05-06 17:44 39.06484 8.13708 33924 ft 471 kts 121°
2026-05-06 17:45 39.03486 8.21202 33929 ft 471 kts 121°
2026-05-06 17:45 39.00487 8.28680 33919 ft 471 kts 121°
2026-05-06 17:46 38.97479 8.36162 33934 ft 471 kts 122°
2026-05-06 17:46 38.94468 8.43633 33935 ft 471 kts 122°
2026-05-06 17:47 38.91446 8.51114 33929 ft 472 kts 122°
2026-05-06 17:47 38.88415 8.58598 33939 ft 472 kts 122°
2026-05-06 17:48 38.85381 8.66072 33938 ft 473 kts 122°
2026-05-06 17:48 38.82335 8.73556 33944 ft 473 kts 122°
2026-05-06 17:49 38.79283 8.81039 33948 ft 474 kts 122°
2026-05-06 17:49 38.76222 8.88523 33949 ft 474 kts 122°
2026-05-06 17:50 38.73153 8.96009 33953 ft 475 kts 122°
2026-05-06 17:50 38.70086 9.03474 33947 ft 475 kts 122°
2026-05-06 17:51 38.66995 9.10977 33945 ft 476 kts 122°
2026-05-06 17:51 38.63904 9.18462 33940 ft 476 kts 122°
2026-05-06 17:52 38.60807 9.25946 33939 ft 477 kts 122°
2026-05-06 17:52 38.57695 9.33445 33942 ft 477 kts 122°
2026-05-06 17:53 38.54582 9.40931 33950 ft 478 kts 122°
2026-05-06 17:53 38.51455 9.48431 33945 ft 478 kts 122°
2026-05-06 17:54 38.48322 9.55927 33942 ft 479 kts 122°
2026-05-06 17:54 38.45181 9.63427 33945 ft 479 kts 122°
2026-05-06 17:55 38.42030 9.70931 33938 ft 480 kts 122°
2026-05-06 17:55 38.38870 9.78438 33935 ft 481 kts 122°
2026-05-06 17:56 38.35702 9.85947 33931 ft 482 kts 122°
2026-05-06 17:56 38.32515 9.93483 33927 ft 483 kts 122°
2026-05-06 17:57 38.29317 10.01027 33924 ft 485 kts 122°
2026-05-06 17:57 38.26101 10.08596 33925 ft 487 kts 122°
2026-05-06 17:58 38.22875 10.16169 33941 ft 488 kts 122°
2026-05-06 17:58 38.19654 10.23713 33946 ft 489 kts 122°
2026-05-06 17:59 38.16374 10.31377 33968 ft 490 kts 122°
2026-05-06 17:59 38.13111 10.38983 33969 ft 491 kts 122°
2026-05-06 18:00 38.09855 10.46553 33967 ft 492 kts 123°
2026-05-06 18:00 38.06573 10.54167 33963 ft 492 kts 123°
2026-05-06 18:01 38.03294 10.61756 33960 ft 492 kts 123°
2026-05-06 18:01 37.99984 10.69397 33957 ft 493 kts 123°
2026-05-06 18:02 37.96678 10.77010 33946 ft 493 kts 123°
2026-05-06 18:02 37.93368 10.84616 33939 ft 493 kts 123°
2026-05-06 18:03 37.90590 10.90984 33937 ft 494 kts 123°
2026-05-06 18:03 37.87261 10.98600 33938 ft 494 kts 123°
2026-05-06 18:04 37.83925 11.06214 33934 ft 495 kts 123°
2026-05-06 18:04 37.80580 11.13828 33929 ft 496 kts 123°
2026-05-06 18:05 37.77218 11.21464 33929 ft 497 kts 123°
2026-05-06 18:05 37.73846 11.29104 33929 ft 498 kts 123°
2026-05-06 18:06 37.70461 11.36755 33930 ft 500 kts 123°
2026-05-06 18:06 37.67060 11.44423 33927 ft 501 kts 123°
2026-05-06 18:07 37.63647 11.52100 33929 ft 503 kts 123°
2026-05-06 18:07 37.60212 11.59809 33928 ft 504 kts 123°
2026-05-06 18:08 37.56768 11.67519 33931 ft 506 kts 123°
2026-05-06 18:08 37.53303 11.75258 33930 ft 507 kts 123°
2026-05-06 18:09 37.49828 11.83003 33933 ft 509 kts 123°
2026-05-06 18:09 37.46339 11.90759 33928 ft 510 kts 123°
2026-05-06 18:10 37.42841 11.98518 33928 ft 510 kts 123°
2026-05-06 18:10 37.39326 12.06295 33917 ft 511 kts 123°
2026-05-06 18:11 37.35804 12.14070 33909 ft 512 kts 123°
2026-05-06 18:11 37.32271 12.21860 33865 ft 514 kts 123°
2026-05-06 18:12 37.30502 12.25754 33619 ft 513 kts 123°
2026-05-06 18:12 37.28742 12.29628 33349 ft 509 kts 123°
2026-05-06 18:12 37.26992 12.33475 33081 ft 506 kts 123°
2026-05-06 18:12 37.25278 12.37235 32819 ft 505 kts 123°
2026-05-06 18:13 37.23567 12.40986 32561 ft 503 kts 123°
2026-05-06 18:13 37.22276 12.43811 32374 ft 501 kts 123°
2026-05-06 18:13 37.20549 12.47589 32111 ft 498 kts 123°
2026-05-06 18:13 37.18802 12.51332 31854 ft 495 kts 125°
2026-05-06 18:14 37.16918 12.54936 31307 ft 493 kts 129°
2026-05-06 18:14 37.14874 12.58371 30684 ft 488 kts 133°
2026-05-06 18:14 37.12688 12.61598 30007 ft 484 kts 134°
2026-05-06 18:14 37.10625 12.64644 29518 ft 476 kts 133°
2026-05-06 18:15 37.08512 12.67808 28976 ft 467 kts 133°
2026-05-06 18:15 37.06441 12.70912 28449 ft 460 kts 133°
2026-05-06 18:15 37.04404 12.73959 27922 ft 453 kts 134°
2026-05-06 18:15 37.02399 12.76950 27403 ft 446 kts 134°
2026-05-06 18:16 37.00413 12.79907 26893 ft 440 kts 134°
2026-05-06 18:16 36.98452 12.82820 26385 ft 435 kts 134°
2026-05-06 18:16 36.96513 12.85700 25873 ft 429 kts 134°
2026-05-06 18:16 36.94599 12.88538 25387 ft 424 kts 134°
2026-05-06 18:17 36.92681 12.91381 24892 ft 420 kts 134°
2026-05-06 18:17 36.90836 12.94115 24421 ft 415 kts 134°
2026-05-06 18:17 36.88983 12.96857 23926 ft 411 kts 134°
2026-05-06 18:17 36.87124 12.99607 23465 ft 406 kts 134°
2026-05-06 18:18 36.85283 13.02322 23171 ft 416 kts 134°
2026-05-06 18:18 36.83436 13.05044 22890 ft 419 kts 134°
2026-05-06 18:18 36.81532 13.07853 22617 ft 415 kts 134°
2026-05-06 18:18 36.79674 13.10593 22351 ft 413 kts 134°
2026-05-06 18:19 36.77839 13.13294 22088 ft 412 kts 134°
2026-05-06 18:19 36.75969 13.16047 21824 ft 411 kts 134°
2026-05-06 18:19 36.74144 13.18729 21568 ft 410 kts 134°
2026-05-06 18:19 36.72308 13.21426 21309 ft 408 kts 135°
2026-05-06 18:20 36.70467 13.24125 21061 ft 407 kts 135°
2026-05-06 18:20 36.68635 13.26808 20808 ft 406 kts 135°
2026-05-06 18:20 36.66782 13.29519 20559 ft 405 kts 135°
2026-05-06 18:20 36.64959 13.32184 20163 ft 406 kts 135°
2026-05-06 18:21 36.63126 13.34862 19598 ft 406 kts 135°
2026-05-06 18:21 36.61297 13.37536 19035 ft 404 kts 136°
2026-05-06 18:21 36.59484 13.40186 18470 ft 401 kts 136°
2026-05-06 18:21 36.57708 13.42779 17880 ft 398 kts 136°
2026-05-06 18:22 36.55921 13.45384 17318 ft 393 kts 136°
2026-05-06 18:22 36.54137 13.47981 16770 ft 388 kts 136°
2026-05-06 18:22 36.52392 13.50519 16225 ft 384 kts 137°
2026-05-06 18:22 36.50667 13.53025 15682 ft 379 kts 136°
2026-05-06 18:23 36.49003 13.55530 14909 ft 384 kts 135°
2026-05-06 18:23 36.47345 13.58112 14395 ft 379 kts 135°
2026-05-06 18:23 36.45725 13.60654 13951 ft 372 kts 135°
2026-05-06 18:23 36.44119 13.63155 13401 ft 368 kts 135°
2026-05-06 18:24 36.42527 13.65612 12881 ft 363 kts 135°
2026-05-06 18:24 36.40953 13.68031 12372 ft 357 kts 135°
2026-05-06 18:24 36.39396 13.70398 12001 ft 349 kts 135°
2026-05-06 18:24 36.37867 13.72688 11701 ft 343 kts 135°
2026-05-06 18:25 36.36339 13.74963 11231 ft 343 kts 135°
2026-05-06 18:25 36.34817 13.77231 10733 ft 340 kts 135°
2026-05-06 18:25 36.33310 13.79482 10261 ft 337 kts 134°
2026-05-06 18:25 36.31847 13.81672 10112 ft 323 kts 134°
2026-05-06 18:26 36.30440 13.83785 9995 ft 308 kts 134°
2026-05-06 18:26 36.29122 13.85760 9891 ft 295 kts 135°
2026-05-06 18:26 36.27822 13.87706 9697 ft 285 kts 135°
2026-05-06 18:26 36.26556 13.89593 9267 ft 284 kts 135°
2026-05-06 18:27 36.25320 13.91433 8938 ft 279 kts 134°
2026-05-06 18:27 36.24084 13.93270 8578 ft 276 kts 134°
2026-05-06 18:27 36.22866 13.95084 8224 ft 272 kts 134°
2026-05-06 18:27 36.21661 13.96881 7874 ft 270 kts 134°
2026-05-06 18:28 36.20469 13.98658 7531 ft 267 kts 134°
2026-05-06 18:28 36.19293 14.00409 7266 ft 261 kts 133°
2026-05-06 18:28 36.18148 14.02114 7058 ft 254 kts 133°
2026-05-06 18:28 36.17024 14.03783 6782 ft 250 kts 133°
2026-05-06 18:29 36.15916 14.05429 6442 ft 249 kts 133°
2026-05-06 18:29 36.14806 14.07076 6096 ft 248 kts 133°
2026-05-06 18:29 36.13713 14.08699 5809 ft 244 kts 133°
2026-05-06 18:29 36.12633 14.10303 5493 ft 241 kts 132°
2026-05-06 18:30 36.11560 14.11893 5194 ft 239 kts 132°
2026-05-06 18:30 36.10507 14.13454 4959 ft 233 kts 132°
2026-05-06 18:30 36.09484 14.14969 4905 ft 228 kts 131°
2026-05-06 18:30 36.08464 14.16481 4906 ft 233 kts 131°
2026-05-06 18:31 36.07403 14.18051 4908 ft 243 kts 131°
2026-05-06 18:31 36.06316 14.19662 4911 ft 243 kts 131°
2026-05-06 18:31 36.05241 14.21256 4916 ft 239 kts 131°
2026-05-06 18:31 36.04182 14.22828 4920 ft 237 kts 131°
2026-05-06 18:32 36.03125 14.24395 4927 ft 236 kts 131°
2026-05-06 18:32 36.02083 14.25937 4923 ft 232 kts 131°
2026-05-06 18:32 36.01035 14.27487 4925 ft 231 kts 131°
2026-05-06 18:32 36.00029 14.28972 4924 ft 228 kts 131°
2026-05-06 18:33 35.99028 14.30453 4742 ft 226 kts 130°
2026-05-06 18:33 35.98090 14.32002 4439 ft 225 kts 129°
2026-05-06 18:33 35.97095 14.33494 4042 ft 227 kts 132°
2026-05-06 18:33 35.96002 14.34937 3530 ft 231 kts 134°
2026-05-06 18:34 35.94876 14.36352 3046 ft 229 kts 134°
2026-05-06 18:34 35.93782 14.37721 2581 ft 219 kts 135°
2026-05-06 18:34 35.92752 14.39007 2277 ft 203 kts 135°
2026-05-06 18:34 35.91795 14.40201 2038 ft 187 kts 135°
2026-05-06 18:35 35.90949 14.41259 1811 ft 162 kts 135°
2026-05-06 18:35 35.90222 14.42155 1601 ft 144 kts 134°
2026-05-06 18:35 35.89590 14.42955 1422 ft 119 kts 135°
2026-05-06 18:35 35.89007 14.43675 1291 ft 114 kts 134°
2026-05-06 18:36 35.88476 14.44332 1119 ft 101 kts 131°
2026-05-06 18:36 35.87990 14.44944 977 ft 102 kts 132°
2026-05-06 18:36 35.87461 14.45604 826 ft 110 kts 131°
2026-05-06 18:36 35.86947 14.46238 672 ft 101 kts 130°
2026-05-06 18:37 35.86461 14.46842 525 ft 102 kts 127°
2026-05-06 18:37 35.86128 14.47270 425 ft 105 kts 126°
2026-05-06 18:37 35.85428 14.48130 280 ft 98 kts 128°
2026-05-06 18:37 35.85090 14.48577 269 ft 24 kts 123°
2026-05-06 18:38 35.85021 14.48777 261 ft 28 kts 104°
2026-05-06 18:38 35.84993 14.48901 259 ft 0 kts 105°
2026-05-06 18:39 35.84950 14.49030 258 ft 26 kts 118°
2026-05-06 18:39 35.84902 14.49140 259 ft 17 kts 82°
2026-05-06 18:40 35.84913 14.49292 259 ft 14 kts 127°
2026-05-06 18:40 35.84862 14.49354 259 ft 16 kts 136°
2026-05-06 18:40 35.84868 14.49396 259 ft 4 kts 359°
2026-05-06 18:40 35.84912 14.49395 259 ft 3 kts 359°
2026-05-06 18:41 35.84919 14.49395 259 ft 2 kts 358°
2026-05-06 18:41 35.84921 14.49395 259 ft 0 kts 358°